When you browse on this site, cookies collect data to enhance your experience and personalize the content and advertising you see.
Visit our Privacy Policy to learn more. By continuing to use the site, you agree to this use of cookies and data.
  • In Czech Republic
  • List of Countries
  • For 7 days
  • Water Temperature
  • Satellite Maps
  • Weather Map
  • Weather Widgets
  • user-avatar
    Login

    Hourly Weather Chihuahua

    Today, 20 April, Saturday

    Time Temperature Precipitation Wind Pressure Humidity
    00:00 +21°C° 0 mm 2 mps 643 mmHg 14%
    01:00 +20°C° 0 mm 2 mps 643 mmHg 15%
    02:00 +19°C° 0 mm 2 mps 642 mmHg 16%
    03:00 +19°C° 0 mm 2 mps 642 mmHg 16%
    04:00 +18°C° 0 mm 2 mps 642 mmHg 17%
    05:00 +18°C° 0 mm 2 mps 641 mmHg 18%
    06:00 +19°C° 0 mm 2 mps 642 mmHg 16%
    07:00 +21°C° 0 mm 2 mps 643 mmHg 15%
    08:00 +24°C° 0 mm 2 mps 643 mmHg 13%
    09:00 +26°C° 0 mm 3 mps 643 mmHg 12%
    10:00 +28°C° 0 mm 3 mps 644 mmHg 10%
    11:00 +30°C° 0 mm 3 mps 644 mmHg 9%
    12:00 +31°C° 0 mm 3 mps 644 mmHg 8%
    13:00 +34°C° 0 mm 4 mps 643 mmHg 8%
    14:00 +35°C° 0 mm 4 mps 643 mmHg 8%
    15:00 +35°C° 0 mm 6 mps 642 mmHg 8%
    16:00 +35°C° 0 mm 7 mps 642 mmHg 8%
    17:00 +34°C° 0 mm 9 mps 642 mmHg 9%
    18:00 +33°C° 0 mm 9 mps 642 mmHg 11%
    19:00 +31°C° 0 mm 9 mps 642 mmHg 13%
    20:00 +28°C° 0 mm 9 mps 642 mmHg 15%
    21:00 +27°C° 0 mm 9 mps 642 mmHg 18%
    22:00 +24°C° 0 mm 9 mps 642 mmHg 21%
    23:00 +23°C° 0 mm 9 mps 642 mmHg 25%

    Tomorrow, 21 April, Sunday

    Time Temperature Precipitation Wind Pressure Humidity
    00:00 +22°C° 0 mm 7 mps 642 mmHg 27%
    01:00 +21°C° 0 mm 6 mps 641 mmHg 30%
    02:00 +20°C° 0 mm 5 mps 641 mmHg 32%
    03:00 +20°C° 0 mm 4 mps 641 mmHg 35%
    04:00 +19°C° 0 mm 2 mps 641 mmHg 37%
    05:00 +19°C° 0 mm 1 mps 641 mmHg 40%
    06:00 +19°C° 0 mm 2 mps 641 mmHg 35%
    07:00 +20°C° 0 mm 3 mps 642 mmHg 30%
    08:00 +22°C° 0 mm 3 mps 643 mmHg 26%
    09:00 +25°C° 0 mm 4 mps 643 mmHg 21%
    10:00 +27°C° 0 mm 5 mps 643 mmHg 16%
    11:00 +28°C° 0 mm 6 mps 644 mmHg 12%
    12:00 +30°C° 0 mm 6 mps 643 mmHg 10%
    13:00 +32°C° 0 mm 5 mps 643 mmHg 9%
    14:00 +33°C° 0 mm 5 mps 643 mmHg 7%
    15:00 +33°C° 0 mm 5 mps 642 mmHg 7%
    16:00 +33°C° 0 mm 6 mps 642 mmHg 8%
    17:00 +33°C° 0 mm 6 mps 642 mmHg 8%
    18:00 +30°C° 0 mm 6 mps 642 mmHg 10%
    19:00 +29°C° 0 mm 6 mps 642 mmHg 12%
    20:00 +28°C° 0 mm 7 mps 642 mmHg 13%
    21:00 +26°C° 0 mm 6 mps 642 mmHg 16%
    22:00 +24°C° 0 mm 6 mps 642 mmHg 18%
    23:00 +23°C° 0 mm 6 mps 642 mmHg 21%

    Day after tomorrow, 22 April, Monday

    Time Temperature Precipitation Wind Pressure Humidity
    00:00 +22°C° 0 mm 5 mps 642 mmHg 22%
    01:00 +22°C° 0 mm 4 mps 642 mmHg 24%
    02:00 +21°C° 0 mm 3 mps 641 mmHg 26%
    03:00 +20°C° 0 mm 2 mps 641 mmHg 28%
    04:00 +20°C° 0 mm 2 mps 641 mmHg 29%
    05:00 +20°C° 0 mm 2 mps 641 mmHg 30%
    06:00 +20°C° 0 mm 2 mps 641 mmHg 28%
    07:00 +21°C° 0 mm 3 mps 642 mmHg 25%
    08:00 +22°C° 0 mm 4 mps 642 mmHg 23%
    09:00 +23°C° 0 mm 4 mps 642 mmHg 19%
    10:00 +26°C° 0 mm 5 mps 642 mmHg 16%
    11:00 +28°C° 0 mm 5 mps 643 mmHg 12%
    12:00 +29°C° 0 mm 6 mps 642 mmHg 10%
    13:00 +30°C° 0 mm 6 mps 642 mmHg 9%
    14:00 +33°C° 0 mm 7 mps 641 mmHg 7%
    15:00 +32°C° 0 mm 7 mps 641 mmHg 8%
    16:00 +32°C° 0 mm 8 mps 640 mmHg 9%
    17:00 +31°C° 0 mm 8 mps 640 mmHg 9%
    18:00 +29°C° 0 mm 8 mps 640 mmHg 11%
    19:00 +27°C° 0 mm 7 mps 640 mmHg 12%
    20:00 +24°C° 0 mm 7 mps 640 mmHg 14%
    21:00 +23°C° 0 mm 7 mps 641 mmHg 17%
    22:00 +22°C° 0 mm 6 mps 641 mmHg 20%
    23:00 +21°C° 0 mm 6 mps 641 mmHg 23%

    23 April, Tuesday

    Time Temperature Precipitation Wind Pressure Humidity
    00:00 +20°C° 0 mm 4 mps 640 mmHg 27%
    01:00 +18°C° 0 mm 3 mps 640 mmHg 31%
    02:00 +18°C° 0 mm 1 mps 639 mmHg 35%
    03:00 +18°C° 0 mm 1 mps 639 mmHg 37%
    04:00 +16°C° 0 mm 1 mps 639 mmHg 40%
    05:00 +14°C° 0 mm 0 mps 639 mmHg 43%
    06:00 +16°C° 0 mm 0 mps 640 mmHg 38%
    07:00 +19°C° 0 mm 1 mps 641 mmHg 33%
    08:00 +21°C° 0 mm 1 mps 642 mmHg 28%
    09:00 +21°C° 0 mm 2 mps 641 mmHg 24%
    10:00 +24°C° 0 mm 3 mps 641 mmHg 19%
    11:00 +26°C° 0 mm 4 mps 641 mmHg 14%
    12:00 +27°C° 0 mm 5 mps 641 mmHg 11%
    13:00 +29°C° 0 mm 5 mps 641 mmHg 9%
    14:00 +30°C° 0 mm 5 mps 640 mmHg 6%
    15:00 +32°C° 0 mm 7 mps 640 mmHg 6%
    16:00 +32°C° 0 mm 8 mps 640 mmHg 6%
    17:00 +32°C° 0 mm 9 mps 640 mmHg 6%
    18:00 +29°C° 0 mm 9 mps 640 mmHg 7%
    19:00 +27°C° 0 mm 8 mps 640 mmHg 8%
    20:00 +24°C° 0 mm 8 mps 640 mmHg 10%
    21:00 +23°C° 0 mm 7 mps 640 mmHg 11%
    22:00 +22°C° 0 mm 6 mps 640 mmHg 11%
    23:00 +21°C° 0 mm 6 mps 641 mmHg 12%

    24 April, Wednesday

    Time Temperature Precipitation Wind Pressure Humidity
    00:00 +20°C° 0 mm 5 mps 640 mmHg 13%
    01:00 +19°C° 0 mm 4 mps 640 mmHg 14%
    02:00 +18°C° 0 mm 3 mps 639 mmHg 15%
    03:00 +17°C° 0 mm 2 mps 640 mmHg 15%
    04:00 +17°C° 0 mm 2 mps 640 mmHg 15%
    05:00 +16°C° 0 mm 2 mps 640 mmHg 16%
    06:00 +18°C° 0 mm 2 mps 640 mmHg 16%
    07:00 +19°C° 0 mm 3 mps 641 mmHg 17%
    08:00 +20°C° 0 mm 3 mps 642 mmHg 18%
    09:00 +21°C° 0 mm 3 mps 642 mmHg 18%
    10:00 +23°C° 0 mm 2 mps 641 mmHg 17%
    11:00 +24°C° 0 mm 2 mps 641 mmHg 17%
    12:00 +25°C° 0 mm 2 mps 641 mmHg 15%
    13:00 +26°C° 0 mm 2 mps 641 mmHg 13%
    14:00 +27°C° 0 mm 2 mps 640 mmHg 11%
    15:00 +27°C° 0 mm 3 mps 640 mmHg 11%
    16:00 +27°C° 0 mm 4 mps 640 mmHg 12%
    17:00 +27°C° 0 mm 5 mps 640 mmHg 12%
    18:00 +24°C° 0 mm 6 mps 641 mmHg 15%
    19:00 +23°C° 0 mm 6 mps 641 mmHg 18%
    20:00 +22°C° 0 mm 6 mps 642 mmHg 22%
    21:00 +21°C° 0 mm 4 mps 642 mmHg 25%
    22:00 +20°C° 0 mm 3 mps 642 mmHg 29%
    23:00 +20°C° 0 mm 2 mps 642 mmHg 32%

    25 April, Thursday

    Time Temperature Precipitation Wind Pressure Humidity
    00:00 +19°C° 0 mm 2 mps 642 mmHg 34%
    01:00 +19°C° 0 mm 1 mps 642 mmHg 37%
    02:00 +19°C° 0 mm 1 mps 641 mmHg 39%
    03:00 +18°C° 0 mm 1 mps 641 mmHg 42%
    04:00 +16°C° 0 mm 1 mps 641 mmHg 46%
    05:00 +15°C° 0 mm 0 mps 641 mmHg 49%
    06:00 +16°C° 0 mm 0 mps 642 mmHg 45%
    07:00 +18°C° 0 mm 0 mps 643 mmHg 41%
    08:00 +19°C° 0 mm 0 mps 644 mmHg 36%
    09:00 +22°C° 0 mm 1 mps 644 mmHg 32%
    10:00 +23°C° 0 mm 1 mps 644 mmHg 27%
    11:00 +25°C° 0 mm 1 mps 644 mmHg 22%
    12:00 +25°C° 0 mm 2 mps 644 mmHg 20%
    13:00 +26°C° 0 mm 2 mps 644 mmHg 18%
    14:00 +27°C° 0 mm 2 mps 643 mmHg 15%
    15:00 +27°C° 0 mm 2 mps 643 mmHg 15%
    16:00 +28°C° 0 mm 3 mps 643 mmHg 14%
    17:00 +28°C° 0 mm 3 mps 643 mmHg 14%
    18:00 +27°C° 0 mm 3 mps 643 mmHg 15%
    19:00 +26°C° 0 mm 3 mps 643 mmHg 16%
    20:00 +25°C° 0 mm 3 mps 644 mmHg 16%
    21:00 +24°C° 0 mm 3 mps 644 mmHg 18%
    22:00 +24°C° 0 mm 2 mps 644 mmHg 19%
    23:00 +23°C° 0 mm 2 mps 644 mmHg 20%
    Show more